This is the latest recevied weather packets stored in our database for station/object K3FAZ. If no packets are shown the sender has not sent any weather packets the latest 10 day(s).
| Time | Temp. | Humidity | Pressure | Rain* | Wind** | Luminosity | Snow |
|---|---|---|---|---|---|---|---|
| 1777636500 | 1.67° C | 99% | 1016.3 hPa | 0 mm | - | 85 W/m² | - |
| 1777636196 | 1.67° C | 99% | 1016.3 hPa | 0 mm | - | 53 W/m² | - |
| 1777635891 | 1.67° C | 99% | 1016.5 hPa | 0 mm | - | 63 W/m² | - |
| 1777635588 | 1.11° C | 99% | 1016.6 hPa | 0 mm | - | 60 W/m² | - |
| 1777635284 | 1.11° C | 99% | 1016.6 hPa | 0 mm | - | 58 W/m² | - |
| 1777634981 | 0.56° C | 99% | 1016.6 hPa | 0 mm | - | 51 W/m² | - |
| 1777634677 | 0.56° C | 99% | 1016.5 hPa | 0 mm | - | 46 W/m² | - |
| 1777634375 | 0.56° C | 99% | 1016.5 hPa | 0 mm | - | 45 W/m² | - |
| 1777634072 | 0.56° C | 99% | 1016.7 hPa | 0 mm | - | 54 W/m² | - |
| 1777633768 | 0° C | 99% | 1016.6 hPa | 0 mm | - | 54 W/m² | - |
| 1777633466 | 0° C | 99% | 1016.5 hPa | 0 mm | - | 46 W/m² | - |
| 1777633164 | 0° C | 99% | 1016.5 hPa | 0 mm | - | 37 W/m² | - |
| 1777632860 | 0° C | 99% | 1016.7 hPa | 0 mm | - | 25 W/m² | - |
| 1777632556 | 0° C | 99% | 1016.6 hPa | 0 mm | - | 21 W/m² | - |
| 1777632254 | 0° C | 99% | 1016.9 hPa | 0 mm | - | 20 W/m² | - |
| 1777631950 | 0° C | 99% | 1016.7 hPa | 0 mm | - | 14 W/m² | - |
| 1777631649 | 0° C | 99% | 1016.7 hPa | 0 mm | - | 10 W/m² | - |
| 1777631345 | 0° C | 99% | 1016.6 hPa | 0 mm | - | 8 W/m² | - |
| 1777631042 | 0° C | 99% | 1016.6 hPa | 0 mm | - | 5 W/m² | - |
| 1777630739 | 0° C | 99% | 1016.5 hPa | 0 mm | - | 3 W/m² | - |
| 1777630435 | 0° C | 99% | 1016.5 hPa | 0 mm | - | 2 W/m² | - |
| 1777630133 | 0° C | 99% | 1016.5 hPa | 0 mm | - | 1 W/m² | - |
| 1777629830 | 0° C | 99% | 1016.7 hPa | 0 mm | - | 0 W/m² | - |
| 1777629527 | 0° C | 99% | 1016.7 hPa | 0 mm | - | 0 W/m² | - |
| 1777629223 | 0° C | 99% | 1016.6 hPa | 0 mm | - | 0 W/m² | - |
* Rain latest hour (hover to see other rain measurements)
** Current wind speed in m/s (hover to see current wind gust speed)